Stations météo

réclame
Mon MeteoGroup
Geilenkirchen, Allemagne (10500): Température de l'air & dewpoint: 13.07.2018 19:00:00 - 19.07.2018 19:00:00 (CEST)Geilenkirchen, Allemagne (10500): Vitesse du vent & gusts: 13.07.2018 19:00:00 - 19.07.2018 19:00:00 (CEST)Geilenkirchen, Allemagne (10500): Direction du vent: 13.07.2018 19:00:00 - 19.07.2018 19:00:00 (CEST)Geilenkirchen, Allemagne (10500): reduced air pressure: 13.07.2018 19:00:00 - 19.07.2018 19:00:00 (CEST)Geilenkirchen, Allemagne (10500): visibility: 13.07.2018 19:00:00 - 19.07.2018 19:00:00 (CEST)
Date & Time tt [°C] td [°C] ff [km/h] ff [knt] fx [km/h] fx [knt] dd ppp [hPa] vv [km]
19.07.2018 19:00:00 28,1 9,9 13 7 - - N 1015,7 10
19.07.2018 18:00:00 27,7 9,8 9 5 - - N 1016,2 10
19.07.2018 17:00:00 28,6 9,9 4 2 - - NE 1016,6 10
19.07.2018 16:00:00 27,8 10,1 9 5 - - WNW 1017,1 10
19.07.2018 15:00:00 27,9 10,4 13 7 - - W 1017,2 10
19.07.2018 14:00:00 26,9 10,7 8 4 - - WNW 1017,7 10
19.07.2018 13:00:00 26,8 11,5 9 5 - - NNW 1017,9 10
19.07.2018 12:00:00 24,8 12,2 9 5 - - SW 1018,4 10
19.07.2018 11:00:00 23,1 13,0 7 4 - - W 1018,7 25
19.07.2018 10:00:00 21,2 12,8 8 4 - - W 1018,9 10
19.07.2018 09:00:00 18,9 12,5 9 5 - - W 1018,8 10
19.07.2018 08:00:00 17,2 12,5 2 1 - - S 1018,7 10
19.07.2018 07:00:00 14,7 12,1 4 2 - - S 1018,7 10
19.07.2018 06:00:00 12,8 11,4 4 2 - - SSW 1018,6 10
19.07.2018 05:00:00 13,1 11,3 2 1 - - WSW 1018,8 10
19.07.2018 04:00:00 14,7 11,9 2 1 - - SSW 1018,8 10
19.07.2018 03:00:00 16,2 11,9 5 3 - - W 1018,8 10
19.07.2018 02:00:00 17,4 12,0 5 3 - - W 1019,0 10
19.07.2018 01:00:00 17,1 11,3 8 4 - - NW 1018,7 10
19.07.2018 00:00:00 18,6 10,9 8 4 - - W 1018,6 10
18.07.2018 23:00:00 19,2 10,7 4 2 - - WNW 1018,1 10
18.07.2018 22:00:00 21,1 10,5 4 2 - - NNW 1017,7 10
18.07.2018 21:00:00 23,9 10,2 4 2 - - W 1017,3 10
18.07.2018 20:00:00 26,0 8,7 5 3 - - W 1017,2 10
18.07.2018 19:00:00 25,8 8,6 8 4 - - WNW 1017,3 10
18.07.2018 18:00:00 25,3 8,2 15 8 - - WSW 1017,5 10
18.07.2018 17:00:00 26,7 8,3 11 6 - - W 1017,8 10
18.07.2018 16:00:00 26,0 8,7 18 10 - - W 1017,9 10
18.07.2018 15:00:00 25,9 9,3 22 12 - - W 1018,2 10
18.07.2018 14:00:00 25,8 9,0 13 7 - - W 1018,2 10
18.07.2018 13:00:00 24,8 8,0 11 6 - - W 1018,6 10
18.07.2018 12:00:00 24,4 8,6 9 5 - - S 1018,9 10
18.07.2018 11:00:00 23,9 8,9 9 5 - - ESE 1019,1 10
18.07.2018 10:00:00 22,1 9,1 9 5 - - E 1019,3 10
18.07.2018 09:00:00 20,4 10,0 8 4 - - E 1019,4 10
18.07.2018 08:00:00 17,8 11,5 5 3 - - SSE 1019,1 10
18.07.2018 07:00:00 14,0 10,5 8 4 - - SSE 1019,2 10
18.07.2018 06:00:00 11,2 9,4 5 3 - - SSE 1019,2 10
18.07.2018 05:00:00 11,2 8,6 2 1 - - SE 1019,1 10
18.07.2018 04:00:00 12,4 9,1 2 1 - - SSE 1019,0 10
18.07.2018 03:00:00 12,6 9,1 2 1 - - SSE 1019,0 10
18.07.2018 02:00:00 13,8 8,9 4 2 - - SSE 1018,9 10
18.07.2018 01:00:00 15,2 9,7 2 1 - - SW 1018,7 10
18.07.2018 00:00:00 16,8 9,3 4 2 - - NW 1018,6 10
17.07.2018 23:00:00 17,8 9,2 5 3 - - NW 1018,0 10
17.07.2018 22:00:00 20,7 9,5 16 9 - - NW 1017,5 10
17.07.2018 21:00:00 22,8 11,2 18 10 - - NW 1016,5 10
17.07.2018 20:00:00 25,8 10,6 29 16 - - W 1015,5 10
17.07.2018 19:00:00 27,4 10,9 26 14 - - WNW 1015,2 10
17.07.2018 18:00:00 27,4 12,2 24 13 - - W 1014,9 10
17.07.2018 17:00:00 28,5 12,6 24 13 - - W 1014,9 10
17.07.2018 16:00:00 28,8 12,5 28 15 47 25 W 1014,9 10
17.07.2018 15:00:00 27,5 11,6 24 13 - - WSW 1014,9 10
17.07.2018 14:00:00 27,6 12,3 26 14 - - WSW 1015,2 10
17.07.2018 13:00:00 26,1 11,6 28 15 - - W 1015,4 10
17.07.2018 12:00:00 26,5 11,6 21 11 - - WSW 1015,2 10
17.07.2018 11:00:00 24,0 11,4 16 9 - - W 1015,1 10
17.07.2018 10:00:00 22,0 11,5 21 11 - - W 1015,1 10
17.07.2018 09:00:00 22,1 12,4 18 10 - - WSW 1014,8 10
17.07.2018 08:00:00 19,6 13,2 15 8 - - WSW 1014,6 10
17.07.2018 07:00:00 19,8 13,3 9 5 - - SW 1014,0 10
17.07.2018 06:00:00 19,2 13,2 9 5 - - WSW 1013,7 10
17.07.2018 05:00:00 19,5 12,7 11 6 - - WSW 1013,5 10
17.07.2018 04:00:00 20,0 12,7 15 8 - - WSW 1013,5 10
17.07.2018 03:00:00 21,0 12,4 5 3 - - ESE 1013,3 10
17.07.2018 02:00:00 20,8 13,0 5 3 - - W 1013,8 10
17.07.2018 01:00:00 21,6 12,0 4 2 - - WNW 1013,6 10
17.07.2018 00:00:00 20,9 11,0 13 7 - - WNW 1013,4 10
16.07.2018 23:00:00 20,1 7,7 2 1 - - ESE 1012,9 10
16.07.2018 22:00:00 22,9 7,5 0 0 - - N 1012,4 10
16.07.2018 21:00:00 27,4 5,7 8 4 - - NW 1011,9 10
16.07.2018 20:00:00 29,3 6,1 13 7 - - NNW 1011,5 10
16.07.2018 19:00:00 29,6 6,0 11 6 - - N 1011,2 10
16.07.2018 18:00:00 29,8 6,1 13 7 - - NNW 1011,4 10
16.07.2018 17:00:00 30,6 6,5 11 6 - - N 1011,5 10
16.07.2018 16:00:00 29,9 4,8 16 9 - - NW 1011,8 10
16.07.2018 15:00:00 30,1 8,1 15 8 - - NNE 1012,2 10
16.07.2018 14:00:00 29,1 7,2 13 7 - - WNW 1012,9 10
16.07.2018 13:00:00 28,3 7,9 15 8 - - N 1013,2 10
16.07.2018 12:00:00 27,6 8,7 15 8 - - N 1013,4 10
16.07.2018 11:00:00 26,2 8,9 9 5 - - N 1013,7 10
16.07.2018 10:00:00 25,9 10,3 4 2 - - N 1013,8 10
16.07.2018 09:00:00 22,9 10,4 4 2 - - SE 1013,9 10
16.07.2018 08:00:00 19,2 10,5 4 2 - - E 1014,2 10
16.07.2018 07:00:00 13,8 9,0 0 0 - - N 1014,5 10
16.07.2018 06:00:00 11,9 8,6 2 1 - - SE 1014,6 10
16.07.2018 05:00:00 13,2 8,4 2 1 - - ENE 1014,5 10
16.07.2018 04:00:00 14,6 8,4 2 1 - - SE 1014,6 10
16.07.2018 03:00:00 15,2 8,1 4 2 - - ESE 1014,9 10
16.07.2018 02:00:00 16,1 8,4 2 1 - - SSE 1015,3 10
16.07.2018 01:00:00 20,1 8,4 8 4 - - SE 1015,1 10
16.07.2018 00:00:00 17,7 9,0 0 0 - - N 1015,2 10
15.07.2018 23:00:00 19,8 8,7 2 1 - - SE 1015,1 10
15.07.2018 22:00:00 26,9 7,5 4 2 - - ENE 1014,6 10
15.07.2018 21:00:00 26,9 7,5 14 8 - - NE 1013,9 70
15.07.2018 20:00:00 28,1 7,3 13 7 - - NNE 1013,8 10
15.07.2018 19:00:00 - - - - - - - - -
15.07.2018 18:00:00 - - - - - - - - -
15.07.2018 17:00:00 - - - - - - - - -
15.07.2018 16:00:00 - - - - - - - - -
15.07.2018 15:00:00 - - - - - - - - -
15.07.2018 14:00:00 - - - - - - - - -
15.07.2018 13:00:00 - - - - - - - - -
15.07.2018 12:00:00 - - - - - - - - -
15.07.2018 11:00:00 - - - - - - - - -
15.07.2018 10:00:00 - - - - - - - - -
15.07.2018 09:00:00 - - - - - - - - -
15.07.2018 08:00:00 - - - - - - - - -
15.07.2018 07:00:00 - - - - - - - - -
15.07.2018 06:00:00 - - - - - - - - -
15.07.2018 05:00:00 - - - - - - - - -
15.07.2018 04:00:00 - - - - - - - - -
15.07.2018 03:00:00 - - - - - - - - -
15.07.2018 02:00:00 - - - - - - - - -
15.07.2018 01:00:00 - - - - - - - - -
15.07.2018 00:00:00 - - - - - - - - -
14.07.2018 23:00:00 - - - - - - - - -
14.07.2018 22:00:00 - - - - - - - - -
14.07.2018 21:00:00 - - - - - - - - -
14.07.2018 20:00:00 - - - - - - - - -
14.07.2018 19:00:00 - - - - - - - - -
14.07.2018 18:00:00 - - - - - - - - -
14.07.2018 17:00:00 - - - - - - - - -
14.07.2018 16:00:00 - - - - - - - - -
14.07.2018 15:00:00 - - - - - - - - -
14.07.2018 14:00:00 - - - - - - - - -
14.07.2018 13:00:00 - - - - - - - - -
14.07.2018 12:00:00 - - - - - - - - -
14.07.2018 11:00:00 - - - - - - - - -
14.07.2018 10:00:00 - - - - - - - - -
14.07.2018 09:00:00 - - - - - - - - -
14.07.2018 08:00:00 - - - - - - - - -
14.07.2018 07:00:00 - - - - - - - - -
14.07.2018 06:00:00 - - - - - - - - -
14.07.2018 05:00:00 - - - - - - - - -
14.07.2018 04:00:00 - - - - - - - - -
14.07.2018 03:00:00 - - - - - - - - -
14.07.2018 02:00:00 - - - - - - - - -
14.07.2018 01:00:00 - - - - - - - - -
14.07.2018 00:00:00 - - - - - - - - -
13.07.2018 23:00:00 - - - - - - - - -
13.07.2018 22:00:00 - - - - - - - - -
13.07.2018 21:00:00 - - - - - - - - -
13.07.2018 20:00:00 - - - - - - - - -
13.07.2018 19:00:00 - - - - - - - - -

tt = Température de l'air
td = dewpoint
ff = Vitesse du vent
fx = gusts
dd = Direction du vent
ppp = reduced air pressure
vv = visibility

stations d'obs. à proximité